User: anonymous   Login
Location: Unspecified
(0.0000°N, 0.0000°E)
Time: 13:06:45
(UTC+00:00)
Language:

OPTUS 1C - Orbit

View from above orbital plane
View from above orbital plane
View from above satellite
View from above satellite

Ground track
Ground track

The orbit data is extracted from the following two-line orbital elements,

1 27831U 03028B   16211.48521362 -.00000169  00000-0  00000+0 0  9992
2 27831   0.0445 236.6058 0003987 265.9322 135.6889  1.00271750 48120
Epoch (UTC): 29 July 2016 11:38:42
Eccentricity: 0.0003987
inclination: 0.0445°
perigee height: 35769 km
apogee height: 35803 km
right ascension of ascending node: 236.6058°
argument of perigee: 265.9322°
revolutions per day: 1.00271750
mean anomaly at epoch: 135.6889°
orbit number at epoch: 4812

The dashed part of the orbit path shows where the satellite is in the earth's shadow,  

DLR